Overview Statistics Trail Chart Weather Telemetry Raw packets
 

This is the latest recevied weather packets stored in our database for station/object KH6HHG. If no packets are shown the sender has not sent any weather packets the latest 10 day(s).

<< 66 67 68 69 70 71 72 >>
Time Temp. Humidity Pressure Rain* Wind** Luminosity Snow
1777223948 19.44° C 82% 1012.7 hPa 0 mm - - -
1777223648 19.44° C 81% 1012.7 hPa 0 mm - - -
1777223348 19.44° C 81% 1012.7 hPa 0 mm - - -
1777223048 19.44° C 80% 1012.6 hPa 0 mm - - -
1777222748 19.44° C 80% 1012.6 hPa 0 mm - - -
1777222448 18.89° C 80% 1012.4 hPa 0 mm - - -
1777222148 18.89° C 81% 1012.3 hPa 0 mm - - -
1777221848 18.89° C 81% 1012.2 hPa 0 mm - - -
1777221548 18.89° C 82% 1012 hPa 0 mm - - -
1777221248 18.33° C 83% 1012 hPa 0 mm - - -
1777220948 18.33° C 84% 1012 hPa 0 mm - - -
1777220648 17.78° C 86% 1012 hPa 0 mm - - -
1777220348 17.22° C 87% 1011.9 hPa 0 mm - - -
1777220048 17.22° C 86% 1011.9 hPa 0 mm - - -
1777219748 17.22° C 85% 1012 hPa 0 mm - - -
1777219448 17.22° C 85% 1011.9 hPa 0 mm - - -
1777219148 17.22° C 84% 1011.7 hPa 0 mm - - -
1777218848 17.22° C 84% 1011.8 hPa 0 mm - - -
1777218549 17.78° C 84% 1011.6 hPa 0 mm - - -
1777218248 17.78° C 83% 1011.6 hPa 0 mm - - -
1777217948 17.78° C 83% 1011.6 hPa 0 mm - - -
1777217648 18.33° C 82% 1011.7 hPa 0 mm - - -
1777217347 18.33° C 82% 1011.7 hPa 0 mm - - -
1777217047 18.33° C 81% 1011.5 hPa 0 mm - - -
1777216747 18.33° C 80% 1011.5 hPa 0 mm - - -

* Rain latest hour (hover to see other rain measurements)
** Current wind speed in m/s (hover to see current wind gust speed)